Location: Newark
(49.8969°N, 3.3422°E)
Time: 20:04:13
(UTC+00:00)

Tiros 1 despin weight - All Passes

Search period start: 29 January 2020 00:00
Search period end: 08 February 2020 00:00
Orbit: 594 x 642 km, 48.2° (Epoch: 28 January)

Date Brightness Start Highest point End Pass type
(mag) Time Alt. Az. Time Alt. Az. Time Alt. Az.
29 Jan - 09:05:40 10° S 09:08:53 20° SE 09:12:09 10° E daylight
29 Jan - 10:45:25 10° WSW 10:49:48 52° SSE 10:54:15 10° E daylight
29 Jan - 12:26:39 10° W 12:31:11 73° S 12:35:47 10° E daylight
29 Jan - 14:08:09 10° W 14:12:32 46° SSW 14:16:59 10° SE daylight
29 Jan - 15:50:31 10° WSW 15:53:23 16° SW 15:56:15 10° S daylight
30 Jan - 09:21:13 10° SSW 09:25:07 30° SSE 09:29:05 10° E daylight
30 Jan - 11:01:48 10° WSW 11:06:15 65° S 11:10:48 10° E daylight
30 Jan - 12:43:11 10° W 12:47:42 67° S 12:52:17 10° ESE daylight
30 Jan - 14:24:48 10° W 14:28:54 32° SSW 14:33:01 10° SE daylight
31 Jan - 07:58:16 10° S 08:00:42 15° SE 08:03:09 10° ESE daylight
31 Jan - 09:37:12 10° SW 09:41:27 43° SSE 09:45:46 10° E daylight
31 Jan - 11:18:16 10° W 11:22:46 72° S 11:27:21 10° E daylight
31 Jan - 12:59:43 10° W 13:04:10 54° SSW 13:08:41 10° ESE daylight
31 Jan - 14:41:40 10° W 14:45:09 21° SW 14:48:39 10° SSE daylight
01 Feb - 08:13:20 10° SSW 08:16:52 23° SE 08:20:27 10° E daylight
01 Feb - 09:53:28 10° WSW 09:57:52 58° SSE 10:02:21 10° E daylight
01 Feb - 11:34:47 10° W 11:39:18 71° S 11:43:52 10° ESE daylight
01 Feb - 13:16:19 10° W 13:20:34 40° SSW 13:24:53 10° SE daylight
01 Feb - 14:59:13 10° WSW 15:01:18 13° SW 15:03:23 10° SSW daylight
02 Feb - 06:52:02 10° SE 06:52:33 10° SE 06:53:03 10° SE daylight
02 Feb - 08:29:05 10° SW 08:33:08 35° SSE 08:37:15 10° E daylight
02 Feb - 10:09:53 10° WSW 10:14:21 69° S 10:18:54 10° E daylight
02 Feb - 11:51:18 10° W 11:55:47 62° SSW 12:00:19 10° ESE daylight
02 Feb - 13:33:02 10° W 13:36:53 27° SSW 13:40:47 10° SSE daylight
03 Feb - 07:05:39 10° S 07:08:39 18° SE 07:11:40 10° E daylight
03 Feb - 08:45:12 10° SW 08:49:30 49° SSE 08:53:53 10° E daylight
03 Feb - 10:26:23 10° W 10:30:52 73° S 10:35:25 10° E daylight
03 Feb - 12:07:52 10° W 12:12:13 48° SSW 12:16:39 10° SE daylight
03 Feb - 13:50:06 10° W 13:53:06 17° SW 13:56:08 10° S daylight
04 Feb - 07:21:04 10° SSW 07:24:51 28° SSE 07:28:41 10° E daylight
04 Feb - 09:01:33 10° WSW 09:05:57 63° SSE 09:10:26 10° E daylight
04 Feb - 10:42:54 10° W 10:47:23 68° S 10:51:55 10° ESE daylight
04 Feb - 12:24:30 10° W 12:28:36 34° SSW 12:32:45 10° SE daylight
05 Feb - 05:58:24 10° SSE 06:00:28 13° SE 06:02:32 10° ESE visible
05 Feb - 07:37:00 10° SW 07:41:10 41° SSE 07:45:24 10° E daylight
05 Feb - 09:18:00 10° W 09:22:27 71° S 09:26:58 10° E daylight
05 Feb - 10:59:27 10° W 11:03:51 56° SSW 11:08:20 10° ESE daylight
05 Feb - 12:41:20 10° W 12:44:52 23° SW 12:48:27 10° SSE daylight
06 Feb - 06:13:14 10° SSW 06:16:37 22° SE 06:20:01 10° E visible
06 Feb - 07:53:14 10° WSW 07:57:35 55° SSE 08:01:59 10° E daylight
06 Feb - 09:34:30 10° W 09:38:58 71° S 09:43:30 10° E daylight
06 Feb - 11:16:02 10° W 11:20:16 42° SSW 11:24:34 10° SE daylight
06 Feb - 12:58:43 10° WSW 13:01:02 14° SW 13:03:22 10° S daylight
07 Feb - 06:28:54 10° SW 06:32:52 33° SSE 06:36:52 10° E visible
07 Feb - 08:09:38 10° WSW 08:14:03 67° S 08:18:31 10° E daylight
07 Feb - 09:51:02 10° W 09:55:28 63° SSW 09:59:58 10° ESE daylight
07 Feb - 11:32:43 10° W 11:36:36 29° SSW 11:40:31 10° SSE daylight
